CW6888 Weather Reports


Display with metric or nautical units.
time (UTC)temp
F
wind
direction
speed
MPH
gust
MPH
rain 1hr
in
rain 24hr
in
rain mn
in
humidity
%
barometer
mb
20260507194817 63 39 6.0 11.0 0.00 0.13 0.09 48 1009.3
20260507193832 62 170 4.0 11.0 0.00 0.13 0.09 53 1009.4
20260507192816 62 25 4.0 10.0 0.00 0.13 0.09 51 1009.6
20260507191829 62 39 5.0 11.0 0.00 0.13 0.09 51 1009.7
20260507190821 62 17 5.0 10.0 0.00 0.13 0.09 47 1009.8
20260507185827 62 86 2.0 10.0 0.00 0.14 0.09 50 1009.9
20260507184821 61 311 2.0 14.0 0.00 0.14 0.09 55 1009.9
20260507183816 61 11 8.0 13.0 0.00 0.14 0.09 51 1010.1
20260507182830 60 100 2.0 8.0 0.00 0.14 0.09 50 1010.2
20260507181825 60 360 6.0 10.0 0.00 0.14 0.09 52 1010.4
20260507180839 60 335 6.0 12.0 0.00 0.14 0.09 55 1010.6
20260507175823 60 12 3.0 11.0 0.00 0.14 0.09 55 1010.7
20260507174835 59 43 7.0 12.0 0.00 0.14 0.09 54 1010.7
20260507173828 59 346 5.0 9.0 0.00 0.14 0.09 56 1010.7
20260507172839 59 38 5.0 11.0 0.00 0.14 0.09 54 1010.8
20260507171821 58 37 8.0 14.0 0.00 0.14 0.09 55 1010.9
20260507170815 58 39 6.0 13.0 0.00 0.14 0.09 53 1011.0
20260507165820 58 5 5.0 13.0 0.00 0.14 0.09 53 1011.3
20260507164832 58 74 7.0 14.0 0.00 0.14 0.09 57 1011.3
20260507163824 58 32 6.0 12.0 0.00 0.14 0.09 56 1011.7
20260507162817 57 15 4.0 10.0 0.00 0.14 0.09 55 1011.8
20260507161830 57 355 5.0 14.0 0.00 0.14 0.09 53 1011.8
20260507160842 56 342 3.0 12.0 0.00 0.14 0.09 57 1011.8
20260507155824 57 26 7.0 13.0 0.00 0.19 0.09 60 1012.0
20260507154817 56 346 4.0 10.0 0.00 0.19 0.09 56 1012.1
20260507153851 56 22 8.0 13.0 0.00 0.19 0.09 61 1012.0
20260507152823 55 40 7.0 12.0 0.00 0.19 0.09 61 1012.1
20260507151817 55 36 6.0 15.0 0.00 0.19 0.09 59 1012.4
20260507150830 55 48 8.0 19.0 0.00 0.19 0.09 57 1012.6
20260507145818 54 34 7.0 15.0 0.00 0.25 0.09 67 1012.5
20260507144832 53 37 5.0 12.0 0.00 0.25 0.09 66 1012.4
20260507143825 52 16 3.0 6.0 0.00 0.25 0.09 66 1012.7
20260507142813 53 51 5.0 9.0 0.00 0.25 0.09 66 1013.0
20260507141830 53 321 5.0 11.0 0.00 0.25 0.09 65 1013.0
20260507140822 52 288 4.0 10.0 0.00 0.25 0.09 67 1013.1
20260507135855 52 36 6.0 12.0 0.00 0.32 0.09 65 1013.1
20260507134817 52 349 3.0 11.0 0.00 0.32 0.09 69 1013.2
20260507133839 52 19 6.0 12.0 0.00 0.32 0.09 70 1013.3
20260507132823 51 50 5.0 8.0 0.00 0.32 0.09 71 1013.3
20260507131814 51 47 4.0 12.0 0.00 0.32 0.09 70 1013.2
20260507130827 51 28 6.0 10.0 0.00 0.32 0.09 71 1013.2
20260507125815 50 35 4.0 12.0 0.00 0.33 0.09 72 1013.2
20260507124829 50 42 5.0 10.0 0.00 0.33 0.09 71 1013.1
20260507123821 50 9 3.0 9.0 0.00 0.33 0.09 74 1013.1
20260507122835 50 21 4.0 11.0 0.00 0.33 0.09 73 1013.0
20260507121831 50 344 5.0 10.0 0.00 0.33 0.09 72 1013.0
20260507120817 49 344 4.0 9.0 0.00 0.33 0.09 72 1013.1
20260507115833 49 35 2.0 4.0 0.00 0.33 0.09 76 1013.1
20260507114819 49 343 2.0 3.0 0.02 0.33 0.09 77 1012.9
20260507113828 49 5 1.0 4.0 0.02 0.33 0.09 77 1013.0
20260507112840 48 355 0.0 2.0 0.02 0.33 0.09 77 1012.8
20260507111900 48 30 0.0 5.0 0.02 0.33 0.09 79 1012.7
20260507110824 48 355 2.0 4.0 0.02 0.33 0.09 81 1012.6
20260507105841 48 20 0.0 0.0 0.02 0.33 0.09 81 1012.5
20260507104825 48 28 0.0 0.0 0.00 0.31 0.07 82 1012.6
20260507103817 48 12 0.0 1.0 0.00 0.31 0.07 82 1012.6
20260507102829 48 13 1.0 3.0 0.00 0.31 0.07 82 1012.2
20260507101822 48 16 0.0 0.0 0.00 0.31 0.07 83 1012.1
20260507100814 48 17 1.0 3.0 0.00 0.31 0.07 84 1012.0
20260507095820 48 13 1.0 3.0 0.00 0.31 0.07 84 1011.9
20260507094833 48 32 2.0 3.0 0.00 0.31 0.07 84 1011.9
20260507093826 48 11 2.0 5.0 0.00 0.31 0.07 85 1011.9
20260507092837 48 13 2.0 6.0 0.00 0.31 0.07 86 1011.9
20260507091827 48 343 1.0 5.0 0.00 0.31 0.07 86 1011.8
20260507090840 48 5 3.0 6.0 0.00 0.31 0.07 87 1011.7
20260507085825 48 51 3.0 9.0 0.00 0.31 0.07 88 1011.5
20260507084836 49 16 4.0 9.0 0.00 0.31 0.07 89 1011.4
20260507083819 49 10 4.0 8.0 0.00 0.31 0.07 90 1011.3
20260507082831 50 20 2.0 8.0 0.00 0.31 0.07 91 1011.2
20260507081821 50 311 2.0 5.0 0.00 0.31 0.07 91 1011.1
20260507080833 50 355 0.0 0.0 0.00 0.31 0.07 91 1011.3
20260507075818 50 355 0.0 0.0 0.01 0.31 0.07 91 1011.2
20260507074846 50 355 0.0 0.0 0.02 0.31 0.07 91 1011.0
20260507073817 50 355 0.0 0.0 0.02 0.31 0.07 91 1011.1
20260507072828 50 355 0.0 0.0 0.02 0.31 0.07 91 1011.3
20260507071819 51 355 0.0 0.0 0.03 0.31 0.07 90 1011.5
20260507070829 51 355 0.0 0.0 0.03 0.31 0.07 90 1011.5
20260507065813 51 355 0.0 2.0 0.02 0.29 0.05 90 1011.5
20260507064824 51 355 0.0 2.0 0.02 0.29 0.05 90 1011.6
20260507063816 51 344 0.0 2.0 0.02 0.29 0.05 89 1011.7
20260507062829 51 344 1.0 5.0 0.03 0.29 0.05 89 1011.9
20260507061821 51 340 2.0 10.0 0.02 0.28 0.04 88 1011.7
20260507060833 51 53 3.0 8.0 0.02 0.28 0.04 87 1011.7
20260507055813 52 28 3.0 9.0 0.01 0.27 0.03 88 1011.5
20260507054845 52 21 4.0 8.0 0.02 0.27 0.03 88 1011.8
20260507053837 52 32 3.0 8.0 0.02 0.27 0.03 88 1011.7
20260507052826 53 332 1.0 5.0 0.01 0.26 0.02 88 1011.5
20260507051818 53 22 2.0 6.0 0.01 0.26 0.02 88 1011.7
20260507050829 53 11 3.0 7.0 0.02 0.26 0.02 87 1011.6
20260507045814 53 333 4.0 9.0 0.01 0.25 0.01 88 1011.7
20260507044827 54 38 2.0 8.0 0.01 0.25 0.01 88 1011.7
20260507043818 54 9 2.0 5.0 0.01 0.25 0.01 88 1011.3
20260507042845 54 38 2.0 6.0 0.02 0.25 0.01 87 1011.4
20260507041815 55 24 4.0 6.0 0.02 0.25 0.01 87 1010.9
20260507040826 55 26 3.0 5.0 0.02 0.24 0.00 87 1011.1
20260507035832 55 61 1.0 6.0 0.02 0.24 0.24 87 1010.5
20260507034845 55 340 3.0 5.0 0.02 0.24 0.24 87 1010.9
20260507033815 55 336 3.0 8.0 0.02 0.24 0.24 87 1010.8
20260507032847 56 21 4.0 7.0 0.01 0.23 0.23 87 1010.9
20260507031817 56 22 5.0 9.0 0.01 0.23 0.23 87 1010.5
20260507030829 57 337 3.0 11.0 0.00 0.22 0.22 86 1010.7
20260507025814 58 43 5.0 11.0 0.00 0.22 0.22 87 1010.8
20260507024855 58 16 6.0 11.0 0.00 0.22 0.22 87 1010.8
20260507023818 58 15 3.0 8.0 0.01 0.22 0.22 88 1010.4
20260507022830 59 339 2.0 5.0 0.01 0.22 0.22 88 1010.3
20260507021822 59 36 2.0 6.0 0.01 0.22 0.22 88 1010.5
20260507020852 59 18 3.0 6.0 0.01 0.22 0.22 88 1010.4
20260507015816 60 38 2.0 8.0 0.02 0.22 0.22 88 1010.3
20260507014824 60 17 3.0 9.0 0.02 0.22 0.22 88 1010.5
20260507013817 61 294 4.0 8.0 0.01 0.21 0.21 88 1010.4
20260507012829 62 355 3.0 5.0 0.01 0.21 0.21 88 1010.7
20260507011820 62 32 2.0 6.0 0.01 0.21 0.21 87 1010.7
20260507010832 63 19 3.0 6.0 0.01 0.21 0.21 87 1010.5
20260507005836 63 56 3.0 13.0 0.00 0.20 0.20 86 1010.4
20260507004827 64 20 5.0 15.0 0.00 0.20 0.20 87 1010.7
20260507003818 65 178 0.0 0.0 0.00 0.20 0.20 86 1009.8
20260507002829 65 178 0.0 0.0 0.00 0.20 0.20 86 1009.8
20260507001842 65 178 0.0 0.0 0.00 0.20 0.20 86 1009.7
20260507000815 65 178 0.0 0.0 0.00 0.20 0.20 85 1009.5
20260506235824 65 178 0.0 0.0 0.00 0.20 0.20 85 1009.0
20260506234821 65 178 0.0 0.0 0.00 0.20 0.20 85 1009.1
20260506233814 66 178 0.0 1.0 0.00 0.20 0.20 85 1009.0
20260506232826 66 178 0.0 1.0 0.00 0.20 0.20 85 1008.9
20260506231840 66 178 0.0 1.0 0.00 0.20 0.20 85 1008.9
20260506230825 66 178 1.0 3.0 0.00 0.20 0.20 84 1008.6
20260506225839 66 192 1.0 3.0 0.00 0.20 0.20 84 1009.0
20260506224823 66 193 0.0 3.0 0.00 0.20 0.20 84 1008.8
20260506223814 66 192 0.0 2.0 0.00 0.20 0.20 84 1008.9
20260506222830 66 188 0.0 3.0 0.00 0.20 0.20 84 1009.0
20260506221824 66 189 0.0 3.0 0.00 0.20 0.20 85 1008.9
20260506220816 65 179 0.0 4.0 0.00 0.20 0.20 84 1009.0
20260506215822 66 215 0.0 5.0 0.00 0.20 0.20 84 1009.0
20260506214851 66 176 1.0 3.0 0.00 0.20 0.20 83 1008.9
20260506213821 66 202 0.0 3.0 0.00 0.20 0.20 83 1008.8
20260506212813 66 189 1.0 3.0 0.00 0.20 0.20 83 1008.4
20260506211830 66 219 2.0 5.0 0.00 0.20 0.20 82 1008.4
20260506210823 67 235 1.0 11.0 0.00 0.20 0.20 82 1008.3
20260506205814 67 190 0.0 7.0 0.00 0.20 0.20 83 1008.3
20260506204831 67 230 2.0 5.0 0.00 0.20 0.20 83 1008.2
20260506203817 66 153 1.0 7.0 0.00 0.20 0.20 84 1008.1
20260506202826 66 74 2.0 7.0 0.00 0.20 0.20 83 1008.2
20260506201820 66 229 2.0 7.0 0.00 0.20 0.20 83 1008.2
20260506200819 67 332 2.0 7.0 0.00 0.20 0.20 84 1008.2
20260506195827 66 181 2.0 8.0 0.00 0.20 0.20 85 1008.2